{"data":{"norad_id":69973,"epoch":"2026-08-08T07:46:23.708064Z","epoch_age_seconds":3748171,"freshness":"OLD","line1":"1 69973U 26158B   26220.32388551 -.00000001  00000+0  67771-4 0  9996","line2":"2 69973  49.9831 178.6327 0006016  34.2447 325.8853 14.24905278  4146","mean_motion":14.24905278,"eccentricity":0.0006016,"inclination_deg":49.9831,"raan_deg":178.6327,"arg_perigee_deg":34.2447,"mean_anomaly_deg":325.8853,"bstar":6.7771e-5,"rev_number":414,"period_min":101.05934915345,"perigee_km":804.48747473822,"apogee_km":813.13481074357,"semimajor_km":7186.9481427409,"source":"CELESTRAK","updated_at":"2026-08-09T09:00:46.803442Z"}}